Time,TemperatureF,DewpointF,PressureIn,WindDirection,WindDirectionDegrees,WindSpeedMPH,WindSpeedGustMPH,Humidity,HourlyPrecipIn,Conditions,Clouds,dailyrainin,SoftwareType,DateUTC
2013-08-10 00:00:00,69.6,66.6,28.02,North,-999,-999.0,-999.0,90,-99.99,,,-99.99,WSDL version 420,2013-08-10 04:00:00,
2013-08-10 00:05:00,69.7,66.6,28.02,North,-999,-999.0,-999.0,90,-99.99,,,-99.99,WSDL version 420,2013-08-10 04:05:00,
2013-08-10 00:10:00,69.8,66.7,28.02,North,-999,-999.0,-999.0,90,-99.99,,,-99.99,WSDL version 420,2013-08-10 04:10:00,
2013-08-10 00:15:00,69.8,66.7,28.02,North,-999,-999.0,-999.0,90,-99.99,,,-99.99,WSDL version 420,2013-08-10 04:15:00,
2013-08-10 00:20:00,69.7,66.9,28.02,North,-999,-999.0,-999.0,91,-99.99,,,-99.99,WSDL version 420,2013-08-10 04:20:00,
2013-08-10 00:25:00,69.6,66.9,28.02,North,-999,-999.0,-999.0,91,-99.99,,,-99.99,WSDL version 420,2013-08-10 04:25:00,
2013-08-10 00:35:00,69.8,67.1,28.02,North,-999,-999.0,-999.0,91,-99.99,,,-99.99,WSDL version 420,2013-08-10 04:35:00,
2013-08-10 00:40:00,69.8,67.1,28.02,North,-999,-999.0,-999.0,91,-99.99,,,-99.99,WSDL version 420,2013-08-10 04:40:00,
2013-08-10 00:45:00,69.9,67.1,28.02,North,-999,-999.0,-999.0,91,-99.99,,,-99.99,WSDL version 420,2013-08-10 04:45:00,
2013-08-10 00:50:00,69.8,67.1,28.02,North,-999,-999.0,-999.0,91,-99.99,,,-99.99,WSDL version 420,2013-08-10 04:50:00,
2013-08-10 00:55:00,69.8,67.1,28.02,North,-999,-999.0,-999.0,91,-99.99,,,-99.99,WSDL version 420,2013-08-10 04:55:00,
2013-08-10 01:00:00,69.8,67.1,28.02,North,-999,-999.0,-999.0,91,-99.99,,,-99.99,WSDL version 420,2013-08-10 05:00:00,
2013-08-10 01:05:00,69.7,67.2,28.02,North,-999,-999.0,-999.0,92,-99.99,,,-99.99,WSDL version 420,2013-08-10 05:05:00,
2013-08-10 01:10:00,69.8,67.1,28.02,North,-999,-999.0,-999.0,91,-99.99,,,-99.99,WSDL version 420,2013-08-10 05:10:00,
2013-08-10 01:15:00,69.8,67.1,28.02,North,-999,-999.0,-999.0,91,-99.99,,,-99.99,WSDL version 420,2013-08-10 05:15:00,
2013-08-10 01:20:00,69.8,67.1,28.02,North,-999,-999.0,-999.0,91,-99.99,,,-99.99,WSDL version 420,2013-08-10 05:20:00,
2013-08-10 01:25:00,69.8,67.1,28.02,North,-999,-999.0,-999.0,91,-99.99,,,-99.99,WSDL version 420,2013-08-10 05:25:00,
2013-08-10 01:30:00,69.9,67.1,28.02,North,-999,-999.0,-999.0,91,-99.99,,,-99.99,WSDL version 420,2013-08-10 05:30:00,
2013-08-10 01:35:00,70.0,67.3,28.02,North,-999,-999.0,-999.0,91,-99.99,,,-99.99,WSDL version 420,2013-08-10 05:35:00,
2013-08-10 01:40:00,70.0,67.3,28.02,North,-999,-999.0,-999.0,91,-99.99,,,-99.99,WSDL version 420,2013-08-10 05:40:00,
2013-08-10 01:45:00,69.8,67.1,28.02,North,-999,-999.0,-999.0,91,-99.99,,,-99.99,WSDL version 420,2013-08-10 05:45:00,
2013-08-10 01:50:00,69.8,66.7,28.02,North,-999,-999.0,-999.0,90,-99.99,,,-99.99,WSDL version 420,2013-08-10 05:50:00,
2013-08-10 01:55:00,69.8,66.7,28.02,North,-999,-999.0,-999.0,90,-99.99,,,-99.99,WSDL version 420,2013-08-10 05:55:00,
2013-08-10 02:00:00,69.6,66.9,28.02,North,-999,-999.0,-999.0,91,-99.99,,,-99.99,WSDL version 420,2013-08-10 06:00:00,
2013-08-10 02:05:00,69.7,66.8,28.02,North,-999,-999.0,-999.0,90,-99.99,,,-99.99,WSDL version 420,2013-08-10 06:05:00,
2013-08-10 02:10:00,69.7,66.8,27.99,North,-999,-999.0,-999.0,90,-99.99,,,-99.99,WSDL version 420,2013-08-10 06:10:00,
2013-08-10 02:15:00,69.7,66.9,27.99,North,-999,-999.0,-999.0,91,-99.99,,,-99.99,WSDL version 420,2013-08-10 06:15:00,
2013-08-10 02:20:00,69.6,66.9,27.99,North,-999,-999.0,-999.0,91,-99.99,,,-99.99,WSDL version 420,2013-08-10 06:20:00,
2013-08-10 02:25:00,69.6,66.8,27.99,North,-999,-999.0,-999.0,90,-99.99,,,-99.99,WSDL version 420,2013-08-10 06:25:00,
2013-08-10 02:30:00,69.6,66.6,27.99,North,-999,-999.0,-999.0,90,-99.99,,,-99.99,WSDL version 420,2013-08-10 06:30:00,
2013-08-10 02:35:00,69.5,66.4,27.99,North,-999,-999.0,-999.0,90,-99.99,,,-99.99,WSDL version 420,2013-08-10 06:35:00,
2013-08-10 02:40:00,69.4,66.4,27.99,North,-999,-999.0,-999.0,90,-99.99,,,-99.99,WSDL version 420,2013-08-10 06:40:00,
2013-08-10 02:45:00,69.4,66.4,27.99,North,-999,-999.0,-999.0,90,-99.99,,,-99.99,WSDL version 420,2013-08-10 06:45:00,
2013-08-10 02:50:00,69.4,66.4,27.99,North,-999,-999.0,-999.0,90,-99.99,,,-99.99,WSDL version 420,2013-08-10 06:50:00,
2013-08-10 02:55:00,69.4,66.4,28.02,North,-999,-999.0,-999.0,90,-99.99,,,-99.99,WSDL version 420,2013-08-10 06:55:00,
2013-08-10 03:00:00,69.4,66.4,28.02,North,-999,-999.0,-999.0,90,-99.99,,,-99.99,WSDL version 420,2013-08-10 07:00:00,
2013-08-10 03:05:00,69.4,66.4,28.02,North,-999,-999.0,-999.0,90,-99.99,,,-99.99,WSDL version 420,2013-08-10 07:05:00,
2013-08-10 03:10:00,69.4,66.4,27.99,North,-999,-999.0,-999.0,90,-99.99,,,-99.99,WSDL version 420,2013-08-10 07:10:00,
2013-08-10 03:15:00,69.4,66.4,27.99,North,-999,-999.0,-999.0,90,-99.99,,,-99.99,WSDL version 420,2013-08-10 07:15:00,
2013-08-10 03:20:00,69.6,66.6,27.99,North,-999,-999.0,-999.0,90,-99.99,,,-99.99,WSDL version 420,2013-08-10 07:20:00,
2013-08-10 03:25:00,69.4,66.5,27.99,North,-999,-999.0,-999.0,91,-99.99,,,-99.99,WSDL version 420,2013-08-10 07:25:00,
2013-08-10 03:30:00,69.4,66.7,27.99,North,-999,-999.0,-999.0,91,-99.99,,,-99.99,WSDL version 420,2013-08-10 07:30:00,
2013-08-10 03:35:00,69.4,66.7,27.99,North,-999,-999.0,-999.0,91,-99.99,,,-99.99,WSDL version 420,2013-08-10 07:35:00,
2013-08-10 03:40:00,69.4,66.7,27.99,North,-999,-999.0,-999.0,91,-99.99,,,-99.99,WSDL version 420,2013-08-10 07:40:00,
2013-08-10 03:45:00,69.4,66.7,27.99,North,-999,-999.0,-999.0,91,-99.99,,,-99.99,WSDL version 420,2013-08-10 07:45:00,
2013-08-10 03:50:00,69.4,66.7,27.99,North,-999,-999.0,-999.0,91,-99.99,,,-99.99,WSDL version 420,2013-08-10 07:50:00,
2013-08-10 03:55:00,69.4,66.7,27.99,North,-999,-999.0,-999.0,91,-99.99,,,-99.99,WSDL version 420,2013-08-10 07:55:00,
2013-08-10 04:00:00,69.4,66.7,27.99,North,-999,-999.0,-999.0,91,-99.99,,,-99.99,WSDL version 420,2013-08-10 08:00:00,
2013-08-10 04:05:00,69.4,66.7,27.99,North,-999,-999.0,-999.0,91,-99.99,,,-99.99,WSDL version 420,2013-08-10 08:05:00,
2013-08-10 04:10:00,69.4,66.7,28.02,North,-999,-999.0,-999.0,91,-99.99,,,-99.99,WSDL version 420,2013-08-10 08:10:00,
2013-08-10 04:15:00,69.4,66.7,28.02,North,-999,-999.0,-999.0,91,-99.99,,,-99.99,WSDL version 420,2013-08-10 08:15:00,
2013-08-10 04:20:00,69.3,66.6,28.02,North,-999,-999.0,-999.0,91,-99.99,,,-99.99,WSDL version 420,2013-08-10 08:20:00,
2013-08-10 04:25:00,69.3,66.6,28.02,North,-999,-999.0,-999.0,91,-99.99,,,-99.99,WSDL version 420,2013-08-10 08:25:00,
2013-08-10 04:30:00,69.4,66.7,28.02,North,-999,-999.0,-999.0,91,-99.99,,,-99.99,WSDL version 420,2013-08-10 08:30:00,
2013-08-10 04:35:00,69.4,66.7,28.02,North,-999,-999.0,-999.0,91,-99.99,,,-99.99,WSDL version 420,2013-08-10 08:35:00,
2013-08-10 04:40:00,69.4,66.7,28.02,North,-999,-999.0,-999.0,91,-99.99,,,-99.99,WSDL version 420,2013-08-10 08:40:00,
2013-08-10 04:45:00,69.4,66.7,28.02,North,-999,-999.0,-999.0,91,-99.99,,,-99.99,WSDL version 420,2013-08-10 08:45:00,
2013-08-10 04:50:00,69.4,66.7,28.02,North,-999,-999.0,-999.0,91,-99.99,,,-99.99,WSDL version 420,2013-08-10 08:50:00,
2013-08-10 04:55:00,69.4,67.1,27.99,North,-999,-999.0,-999.0,92,-99.99,,,-99.99,WSDL version 420,2013-08-10 08:55:00,
2013-08-10 05:00:00,69.4,67.1,27.99,North,-999,-999.0,-999.0,92,-99.99,,,-99.99,WSDL version 420,2013-08-10 09:00:00,
2013-08-10 05:05:00,69.4,67.1,27.99,North,-999,-999.0,-999.0,92,-99.99,,,-99.99,WSDL version 420,2013-08-10 09:05:00,
2013-08-10 05:10:00,69.6,67.3,27.99,North,-999,-999.0,-999.0,92,-99.99,,,-99.99,WSDL version 420,2013-08-10 09:10:00,
2013-08-10 05:15:00,69.6,67.3,27.99,North,-999,-999.0,-999.0,92,-99.99,,,-99.99,WSDL version 420,2013-08-10 09:15:00,
2013-08-10 05:20:00,69.6,67.3,27.99,North,-999,-999.0,-999.0,92,-99.99,,,-99.99,WSDL version 420,2013-08-10 09:20:00,
2013-08-10 05:25:00,69.6,67.3,27.99,North,-999,-999.0,-999.0,92,-99.99,,,-99.99,WSDL version 420,2013-08-10 09:25:00,
2013-08-10 05:30:00,69.6,67.3,27.99,North,-999,-999.0,-999.0,92,-99.99,,,-99.99,WSDL version 420,2013-08-10 09:30:00,
2013-08-10 05:40:00,69.6,67.3,27.99,North,-999,-999.0,-999.0,92,-99.99,,,-99.99,WSDL version 420,2013-08-10 09:40:00,
2013-08-10 05:45:00,69.6,67.3,27.99,North,-999,-999.0,-999.0,92,-99.99,,,-99.99,WSDL version 420,2013-08-10 09:45:00,
2013-08-10 05:50:00,69.6,67.3,27.99,North,-999,-999.0,-999.0,92,-99.99,,,-99.99,WSDL version 420,2013-08-10 09:50:00,
2013-08-10 05:55:00,69.6,67.5,27.99,North,-999,-999.0,-999.0,93,-99.99,,,-99.99,WSDL version 420,2013-08-10 09:55:00,
2013-08-10 06:00:00,69.6,67.6,27.99,North,-999,-999.0,-999.0,93,-99.99,,,-99.99,WSDL version 420,2013-08-10 10:00:00,
2013-08-10 06:05:00,69.6,67.6,27.99,North,-999,-999.0,-999.0,93,-99.99,,,-99.99,WSDL version 420,2013-08-10 10:05:00,
2013-08-10 06:15:00,69.7,67.6,27.99,North,-999,-999.0,-999.0,92,-99.99,,,-99.99,WSDL version 420,2013-08-10 10:15:00,
2013-08-10 06:25:00,69.8,67.4,28.02,North,-999,-999.0,-999.0,92,-99.99,,,-99.99,WSDL version 420,2013-08-10 10:25:00,
2013-08-10 06:30:00,69.8,67.6,28.02,North,-999,-999.0,-999.0,93,-99.99,,,-99.99,WSDL version 420,2013-08-10 10:30:00,
2013-08-10 06:35:00,69.8,67.8,28.02,North,-999,-999.0,-999.0,93,-99.99,,,-99.99,WSDL version 420,2013-08-10 10:35:00,
2013-08-10 06:45:00,69.8,67.8,28.02,North,-999,-999.0,-999.0,93,0.00,,,0.00,WSDL version 420,2013-08-10 10:45:00,
2013-08-10 06:50:00,69.8,67.8,28.02,North,-999,-999.0,-999.0,93,-99.99,,,-99.99,WSDL version 420,2013-08-10 10:50:00,
2013-08-10 07:00:00,69.8,67.8,28.02,North,-999,-999.0,-999.0,93,-99.99,,,-99.99,WSDL version 420,2013-08-10 11:00:00,
2013-08-10 07:10:00,70.0,68.0,28.02,North,-999,-999.0,-999.0,93,-99.99,,,-99.99,WSDL version 420,2013-08-10 11:10:00,
2013-08-10 07:20:00,70.0,68.0,28.02,North,-999,-999.0,-999.0,93,-99.99,,,-99.99,WSDL version 420,2013-08-10 11:20:00,
2013-08-10 07:25:00,70.0,68.0,28.02,North,-999,-999.0,-999.0,93,-99.99,,,-99.99,WSDL version 420,2013-08-10 11:25:00,
2013-08-10 07:30:00,70.0,68.0,28.02,North,-999,-999.0,-999.0,93,-99.99,,,-99.99,WSDL version 420,2013-08-10 11:30:00,
2013-08-10 07:40:00,70.2,68.1,28.02,North,-999,-999.0,-999.0,93,-99.99,,,-99.99,WSDL version 420,2013-08-10 11:40:00,
2013-08-10 07:45:00,70.2,68.1,28.02,North,-999,-999.0,-999.0,93,-99.99,,,-99.99,WSDL version 420,2013-08-10 11:45:00,
2013-08-10 07:50:00,70.2,68.4,28.02,North,-999,-999.0,-999.0,94,-99.99,,,-99.99,WSDL version 420,2013-08-10 11:50:00,
2013-08-10 07:55:00,70.2,68.5,28.02,North,-999,-999.0,-999.0,94,-99.99,,,-99.99,WSDL version 420,2013-08-10 11:55:00,
2013-08-10 08:00:00,70.2,68.5,28.02,North,-999,-999.0,-999.0,94,-99.99,,,-99.99,WSDL version 420,2013-08-10 12:00:00,
2013-08-10 08:05:00,70.3,68.7,28.02,North,-999,-999.0,-999.0,94,-99.99,,,-99.99,WSDL version 420,2013-08-10 12:05:00,
2013-08-10 08:10:00,70.3,68.7,28.02,North,-999,-999.0,-999.0,94,-99.99,,,-99.99,WSDL version 420,2013-08-10 12:10:00,
2013-08-10 08:15:00,70.5,68.8,28.02,North,-999,-999.0,-999.0,94,-99.99,,,-99.99,WSDL version 420,2013-08-10 12:15:00,
2013-08-10 08:20:00,70.5,68.8,28.02,North,-999,-999.0,-999.0,94,-99.99,,,-99.99,WSDL version 420,2013-08-10 12:20:00,
2013-08-10 08:25:00,70.6,68.9,28.02,North,-999,-999.0,-999.0,94,-99.99,,,-99.99,WSDL version 420,2013-08-10 12:25:00,
2013-08-10 08:30:00,70.5,68.8,28.02,North,-999,-999.0,-999.0,94,-99.99,,,-99.99,WSDL version 420,2013-08-10 12:30:00,
2013-08-10 08:35:00,70.6,69.0,28.02,North,-999,-999.0,-999.0,94,-99.99,,,-99.99,WSDL version 420,2013-08-10 12:35:00,
2013-08-10 08:40:00,70.7,69.0,28.02,North,-999,-999.0,-999.0,94,-99.99,,,-99.99,WSDL version 420,2013-08-10 12:40:00,
2013-08-10 08:45:00,70.7,69.0,28.02,North,-999,-999.0,-999.0,94,-99.99,,,-99.99,WSDL version 420,2013-08-10 12:45:00,
2013-08-10 08:50:00,70.7,69.0,28.02,North,-999,-999.0,-999.0,94,-99.99,,,-99.99,WSDL version 420,2013-08-10 12:50:00,
2013-08-10 08:55:00,70.7,69.3,28.02,North,-999,-999.0,-999.0,96,-99.99,,,-99.99,WSDL version 420,2013-08-10 12:55:00,
2013-08-10 09:00:00,70.9,69.5,28.02,North,-999,-999.0,-999.0,96,-99.99,,,-99.99,WSDL version 420,2013-08-10 13:00:00,
2013-08-10 09:05:00,70.9,69.5,28.02,North,-999,-999.0,-999.0,96,-99.99,,,-99.99,WSDL version 420,2013-08-10 13:05:00,
2013-08-10 09:10:00,70.9,69.6,28.02,North,-999,-999.0,-999.0,96,0.00,,,0.00,WSDL version 420,2013-08-10 13:10:00,
2013-08-10 09:15:00,71.1,69.7,28.02,North,-999,-999.0,-999.0,96,-99.99,,,-99.99,WSDL version 420,2013-08-10 13:15:00,
2013-08-10 09:20:00,71.3,70.0,28.02,North,-999,-999.0,-999.0,96,0.00,,,0.00,WSDL version 420,2013-08-10 13:20:00,
2013-08-10 09:25:00,71.5,70.2,28.02,North,-999,-999.0,-999.0,96,-99.99,,,-99.99,WSDL version 420,2013-08-10 13:25:00,
2013-08-10 09:30:00,71.8,70.4,28.02,North,-999,-999.0,-999.0,96,-99.99,,,-99.99,WSDL version 420,2013-08-10 13:30:00,
2013-08-10 09:35:00,71.8,70.4,28.02,North,-999,-999.0,-999.0,96,0.00,,,0.00,WSDL version 420,2013-08-10 13:35:00,
2013-08-10 09:40:00,71.8,70.4,28.02,North,-999,-999.0,-999.0,96,-99.99,,,-99.99,WSDL version 420,2013-08-10 13:40:00,
2013-08-10 09:45:00,71.8,70.4,28.02,North,-999,-999.0,-999.0,96,-99.99,,,-99.99,WSDL version 420,2013-08-10 13:45:00,
2013-08-10 09:50:00,71.8,70.4,28.02,North,-999,-999.0,-999.0,96,0.00,,,0.00,WSDL version 420,2013-08-10 13:50:00,
2013-08-10 09:55:00,71.9,70.6,28.02,North,-999,-999.0,-999.0,96,0.00,,,0.00,WSDL version 420,2013-08-10 13:55:00,
2013-08-10 10:00:00,72.1,70.8,28.02,North,-999,-999.0,-999.0,96,-99.99,,,-99.99,WSDL version 420,2013-08-10 14:00:00,
2013-08-10 10:05:00,72.3,71.0,28.02,SSE,158,0.0,0.0,96,0.00,,,0.00,WSDL version 420,2013-08-10 14:05:00,
2013-08-10 10:10:00,72.3,70.9,28.02,SSW,203,0.0,0.0,96,0.00,,,0.00,WSDL version 420,2013-08-10 14:10:00,
2013-08-10 10:15:00,72.1,70.8,28.02,WNW,293,0.0,0.0,96,0.00,,,0.00,WSDL version 420,2013-08-10 14:15:00,
2013-08-10 10:20:00,72.0,70.6,28.02,WNW,293,0.0,0.0,96,0.00,,,0.00,WSDL version 420,2013-08-10 14:20:00,
2013-08-10 10:25:00,72.0,70.4,28.02,WNW,293,0.0,0.0,94,0.00,,,0.00,WSDL version 420,2013-08-10 14:25:00,
2013-08-10 10:30:00,72.3,70.6,28.02,North,-999,-999.0,-999.0,94,0.00,,,0.00,WSDL version 420,2013-08-10 14:30:00,
2013-08-10 10:35:00,72.6,71.0,28.02,North,-999,-999.0,-999.0,96,0.00,,,0.00,WSDL version 420,2013-08-10 14:35:00,
2013-08-10 10:40:00,72.5,71.0,28.02,North,-999,-999.0,-999.0,94,0.00,,,0.00,WSDL version 420,2013-08-10 14:40:00,
2013-08-10 10:45:00,72.5,70.8,28.02,North,-999,-999.0,-999.0,94,0.00,,,0.00,WSDL version 420,2013-08-10 14:45:00,
2013-08-10 10:50:00,72.8,71.1,28.02,North,-999,-999.0,-999.0,94,0.00,,,0.00,WSDL version 420,2013-08-10 14:50:00,
2013-08-10 10:55:00,72.9,71.2,28.05,West,270,0.0,0.0,94,0.00,,,0.00,WSDL version 420,2013-08-10 14:55:00,
2013-08-10 11:00:00,72.9,71.2,28.05,SSW,203,0.9,0.9,94,0.00,,,0.00,WSDL version 420,2013-08-10 15:00:00,
2013-08-10 11:05:00,73.1,71.4,28.05,SSW,203,0.9,0.9,94,0.00,,,0.00,WSDL version 420,2013-08-10 15:05:00,
2013-08-10 11:10:00,73.1,71.4,28.05,SSW,203,0.9,0.9,94,0.00,,,0.00,WSDL version 420,2013-08-10 15:10:00,
2013-08-10 11:15:00,73.1,71.4,28.05,North,0,0.0,0.9,94,0.00,,,0.00,WSDL version 420,2013-08-10 15:15:00,
2013-08-10 11:25:00,73.9,71.8,28.02,SW,225,0.0,0.0,93,0.00,,,0.00,WSDL version 420,2013-08-10 15:25:00,
2013-08-10 11:30:00,74.0,72.0,28.02,SW,225,0.0,0.0,93,0.00,,,0.00,WSDL version 420,2013-08-10 15:30:00,
2013-08-10 11:40:00,74.1,72.0,28.05,SSW,203,0.9,0.9,93,0.00,,,0.00,WSDL version 420,2013-08-10 15:40:00,
2013-08-10 11:45:00,74.4,72.4,28.05,SSW,203,0.9,0.9,93,0.00,,,0.00,WSDL version 420,2013-08-10 15:45:00,
2013-08-10 11:50:00,74.8,72.6,28.05,SSW,203,0.0,0.9,92,0.00,,,0.00,WSDL version 420,2013-08-10 15:50:00,
2013-08-10 11:55:00,75.1,72.7,28.02,SSW,203,0.0,0.0,92,0.00,,,0.00,WSDL version 420,2013-08-10 15:55:00,
2013-08-10 12:00:00,75.2,72.8,28.02,SSW,203,0.0,0.0,92,0.00,,,0.00,WSDL version 420,2013-08-10 16:00:00,
2013-08-10 12:05:00,75.0,72.6,28.02,SSW,203,0.0,0.0,92,0.00,,,0.00,WSDL version 420,2013-08-10 16:05:00,
2013-08-10 12:10:00,75.4,72.7,28.02,SSW,203,0.0,0.0,91,0.00,,,0.00,WSDL version 420,2013-08-10 16:10:00,
2013-08-10 12:15:00,76.0,73.2,28.02,North,-999,-999.0,-999.0,91,0.00,,,0.00,WSDL version 420,2013-08-10 16:15:00,
2013-08-10 12:20:00,76.3,73.3,28.02,North,-999,-999.0,-999.0,90,0.00,,,0.00,WSDL version 420,2013-08-10 16:20:00,
2013-08-10 12:25:00,76.6,73.5,28.02,North,-999,-999.0,-999.0,90,0.00,,,0.00,WSDL version 420,2013-08-10 16:25:00,
2013-08-10 12:30:00,76.7,73.4,28.02,SSW,203,1.5,2.9,89,0.00,,,0.00,WSDL version 420,2013-08-10 16:30:00,
2013-08-10 12:40:00,76.8,72.9,28.02,NNW,338,2.5,2.5,88,0.00,,,0.00,WSDL version 420,2013-08-10 16:40:00,
2013-08-10 12:45:00,77.0,73.0,28.02,NNW,338,2.5,2.5,87,0.00,,,0.00,WSDL version 420,2013-08-10 16:45:00,
2013-08-10 12:50:00,77.2,72.9,28.02,WSW,248,0.9,2.5,87,0.00,,,0.00,WSDL version 420,2013-08-10 16:50:00,
2013-08-10 13:00:00,78.5,73.7,28.02,NNW,338,1.3,1.3,84,0.00,,,0.00,WSDL version 420,2013-08-10 17:00:00,
2013-08-10 13:05:00,78.3,73.2,28.02,NNW,338,1.3,1.3,84,0.00,,,0.00,WSDL version 420,2013-08-10 17:05:00,
2013-08-10 13:10:00,78.0,72.6,28.02,North,-999,-999.0,-999.0,83,0.00,,,0.00,WSDL version 420,2013-08-10 17:10:00,
2013-08-10 13:15:00,77.7,72.3,28.02,North,-999,-999.0,-999.0,83,0.00,,,0.00,WSDL version 420,2013-08-10 17:15:00,
2013-08-10 13:20:00,77.4,71.9,28.02,North,-999,-999.0,-999.0,83,0.00,,,0.00,WSDL version 420,2013-08-10 17:20:00,
2013-08-10 13:25:00,76.8,71.6,28.02,North,-999,-999.0,-999.0,84,0.00,,,0.00,WSDL version 420,2013-08-10 17:25:00,
2013-08-10 13:35:00,75.7,70.8,28.02,North,-999,-999.0,-999.0,86,0.04,,,0.04,WSDL version 420,2013-08-10 17:35:00,
2013-08-10 13:40:00,74.5,70.1,28.02,North,-999,-999.0,-999.0,87,0.25,,,0.25,WSDL version 420,2013-08-10 17:40:00,
2013-08-10 13:45:00,73.8,69.5,28.02,West,270,0.0,0.0,87,0.29,,,0.29,WSDL version 420,2013-08-10 17:45:00,
2013-08-10 13:50:00,73.5,69.5,28.02,West,270,0.0,0.0,88,-99.99,,,-99.99,WSDL version 420,2013-08-10 17:50:00,
2013-08-10 13:55:00,73.3,69.5,28.02,SSE,158,0.0,0.0,88,-99.99,,,-99.99,WSDL version 420,2013-08-10 17:55:00,
2013-08-10 14:00:00,73.0,69.3,28.02,SSE,158,0.0,0.0,89,-99.99,,,-99.99,WSDL version 420,2013-08-10 18:00:00,
2013-08-10 14:05:00,73.4,69.9,28.02,SSE,158,0.0,0.0,89,-99.99,,,-99.99,WSDL version 420,2013-08-10 18:05:00,
2013-08-10 14:10:00,73.9,70.4,28.02,North,-999,-999.0,-999.0,89,-99.99,,,-99.99,WSDL version 420,2013-08-10 18:10:00,
2013-08-10 14:15:00,74.2,70.8,28.02,SSW,203,0.0,0.0,89,0.58,,,0.58,WSDL version 420,2013-08-10 18:15:00,
2013-08-10 14:20:00,74.2,70.7,28.02,SSW,203,0.0,0.0,89,0.58,,,0.58,WSDL version 420,2013-08-10 18:20:00,
2013-08-10 14:25:00,73.9,70.5,28.02,SSW,203,0.0,0.0,89,0.58,,,0.58,WSDL version 420,2013-08-10 18:25:00,
2013-08-10 14:30:00,74.0,70.5,28.02,SSW,203,0.0,0.0,89,0.58,,,0.58,WSDL version 420,2013-08-10 18:30:00,
2013-08-10 14:35:00,74.1,70.6,28.02,North,-999,-999.0,-999.0,89,0.54,,,0.58,WSDL version 420,2013-08-10 18:35:00,
2013-08-10 14:40:00,73.8,70.3,28.02,North,-999,-999.0,-999.0,89,0.33,,,0.58,WSDL version 420,2013-08-10 18:40:00,
2013-08-10 14:45:00,73.6,70.1,28.02,North,-999,-999.0,-999.0,89,0.29,,,0.58,WSDL version 420,2013-08-10 18:45:00,
2013-08-10 14:50:00,73.6,70.1,28.02,North,-999,-999.0,-999.0,89,0.29,,,0.58,WSDL version 420,2013-08-10 18:50:00,
2013-08-10 14:55:00,73.4,69.9,28.02,North,-999,-999.0,-999.0,89,0.29,,,0.58,WSDL version 420,2013-08-10 18:55:00,
2013-08-10 15:00:00,73.4,69.9,28.02,North,-999,-999.0,-999.0,89,0.00,,,0.58,WSDL version 420,2013-08-10 19:00:00,
2013-08-10 15:05:00,73.0,69.9,28.02,North,-999,-999.0,-999.0,90,-99.99,,,-99.99,WSDL version 420,2013-08-10 19:05:00,
2013-08-10 15:10:00,73.0,69.9,28.02,North,-999,-999.0,-999.0,90,-99.99,,,-99.99,WSDL version 420,2013-08-10 19:10:00,
2013-08-10 15:15:00,73.1,70.0,28.02,North,-999,-999.0,-999.0,90,-99.99,,,-99.99,WSDL version 420,2013-08-10 19:15:00,
2013-08-10 15:20:00,73.2,70.0,28.02,North,-999,-999.0,-999.0,89,-99.99,,,-99.99,WSDL version 420,2013-08-10 19:20:00,
2013-08-10 15:25:00,73.5,70.0,28.02,North,-999,-999.0,-999.0,89,0.08,,,0.66,WSDL version 420,2013-08-10 19:25:00,
2013-08-10 15:30:00,73.4,69.9,28.02,North,-999,-999.0,-999.0,89,-99.99,,,-99.99,WSDL version 420,2013-08-10 19:30:00,
2013-08-10 15:35:00,73.0,69.6,28.02,North,-999,-999.0,-999.0,89,-99.99,,,-99.99,WSDL version 420,2013-08-10 19:35:00,
2013-08-10 15:40:00,72.7,69.2,28.02,North,-999,-999.0,-999.0,89,0.08,,,0.66,WSDL version 420,2013-08-10 19:40:00,
2013-08-10 15:45:00,72.5,69.0,28.02,North,-999,-999.0,-999.0,89,0.08,,,0.66,WSDL version 420,2013-08-10 19:45:00,
2013-08-10 15:50:00,72.4,69.0,28.02,North,-999,-999.0,-999.0,89,-99.99,,,-99.99,WSDL version 420,2013-08-10 19:50:00,
2013-08-10 15:55:00,72.4,68.9,28.02,North,-999,-999.0,-999.0,89,-99.99,,,-99.99,WSDL version 420,2013-08-10 19:55:00,
2013-08-10 16:00:00,72.4,68.9,28.02,North,-999,-999.0,-999.0,89,0.13,,,0.71,WSDL version 420,2013-08-10 20:00:00,
2013-08-10 16:05:00,72.3,68.8,28.02,North,-999,-999.0,-999.0,89,-99.99,,,-99.99,WSDL version 420,2013-08-10 20:05:00,
2013-08-10 16:10:00,72.1,68.7,28.02,North,-999,-999.0,-999.0,89,-99.99,,,-99.99,WSDL version 420,2013-08-10 20:10:00,
2013-08-10 16:15:00,72.1,69.0,28.02,North,-999,-999.0,-999.0,90,-99.99,,,-99.99,WSDL version 420,2013-08-10 20:15:00,
2013-08-10 16:20:00,72.0,68.9,28.02,North,-999,-999.0,-999.0,90,-99.99,,,-99.99,WSDL version 420,2013-08-10 20:20:00,
2013-08-10 16:25:00,72.1,69.0,28.02,North,-999,-999.0,-999.0,90,-99.99,,,-99.99,WSDL version 420,2013-08-10 20:25:00,
2013-08-10 16:30:00,72.0,68.9,28.02,North,-999,-999.0,-999.0,90,0.05,,,0.71,WSDL version 420,2013-08-10 20:30:00,
2013-08-10 16:35:00,71.8,68.7,28.02,North,-999,-999.0,-999.0,90,-99.99,,,-99.99,WSDL version 420,2013-08-10 20:35:00,
2013-08-10 16:40:00,72.0,68.9,28.02,North,-999,-999.0,-999.0,90,-99.99,,,-99.99,WSDL version 420,2013-08-10 20:40:00,
2013-08-10 16:45:00,71.7,68.6,28.02,North,-999,-999.0,-999.0,90,-99.99,,,-99.99,WSDL version 420,2013-08-10 20:45:00,
2013-08-10 16:50:00,71.6,68.5,28.02,North,-999,-999.0,-999.0,90,-99.99,,,-99.99,WSDL version 420,2013-08-10 20:50:00,
2013-08-10 16:55:00,71.6,68.5,28.02,North,-999,-999.0,-999.0,90,-99.99,,,-99.99,WSDL version 420,2013-08-10 20:55:00,
2013-08-10 17:00:00,71.4,68.7,28.02,North,-999,-999.0,-999.0,91,-99.99,,,-99.99,WSDL version 420,2013-08-10 21:00:00,
2013-08-10 17:05:00,71.4,68.6,28.02,North,-999,-999.0,-999.0,91,-99.99,,,-99.99,WSDL version 420,2013-08-10 21:05:00,
2013-08-10 17:10:00,71.4,68.7,28.02,North,-999,-999.0,-999.0,91,-99.99,,,-99.99,WSDL version 420,2013-08-10 21:10:00,
2013-08-10 17:15:00,71.4,68.7,28.02,North,-999,-999.0,-999.0,91,0.00,,,0.71,WSDL version 420,2013-08-10 21:15:00,
2013-08-10 17:20:00,71.4,68.7,28.02,North,-999,-999.0,-999.0,91,-99.99,,,-99.99,WSDL version 420,2013-08-10 21:20:00,
2013-08-10 17:25:00,71.4,68.7,28.02,North,-999,-999.0,-999.0,91,0.00,,,0.71,WSDL version 420,2013-08-10 21:25:00,
2013-08-10 17:30:00,71.4,68.7,28.02,North,-999,-999.0,-999.0,91,0.00,,,0.71,WSDL version 420,2013-08-10 21:30:00,
2013-08-10 17:35:00,71.4,68.7,28.02,North,-999,-999.0,-999.0,91,-99.99,,,-99.99,WSDL version 420,2013-08-10 21:35:00,
2013-08-10 17:45:00,71.7,68.9,28.02,North,-999,-999.0,-999.0,91,-99.99,,,-99.99,WSDL version 420,2013-08-10 21:45:00,
2013-08-10 17:50:00,72.1,69.3,28.02,West,270,0.0,0.0,91,-99.99,,,-99.99,WSDL version 420,2013-08-10 21:50:00,
2013-08-10 17:55:00,72.5,69.8,28.02,West,270,0.0,0.0,91,-99.99,,,-99.99,WSDL version 420,2013-08-10 21:55:00,
2013-08-10 18:00:00,72.4,69.6,28.02,West,270,0.0,0.0,91,0.00,,,0.71,WSDL version 420,2013-08-10 22:00:00,
2013-08-10 18:05:00,72.3,69.6,28.02,North,-999,-999.0,-999.0,91,-99.99,,,-99.99,WSDL version 420,2013-08-10 22:05:00,
2013-08-10 18:10:00,72.3,69.6,28.02,North,-999,-999.0,-999.0,91,0.00,,,0.71,WSDL version 420,2013-08-10 22:10:00,
2013-08-10 18:15:00,72.3,69.6,28.02,North,-999,-999.0,-999.0,91,0.00,,,0.71,WSDL version 420,2013-08-10 22:15:00,
2013-08-10 18:20:00,72.5,69.8,28.02,North,-999,-999.0,-999.0,91,-99.99,,,-99.99,WSDL version 420,2013-08-10 22:20:00,
2013-08-10 18:25:00,72.7,69.9,28.02,North,-999,-999.0,-999.0,91,0.00,,,0.71,WSDL version 420,2013-08-10 22:25:00,
2013-08-10 18:35:00,74.0,71.0,28.02,North,-999,-999.0,-999.0,90,0.00,,,0.71,WSDL version 420,2013-08-10 22:35:00,
2013-08-10 18:40:00,74.7,71.5,28.02,North,-999,-999.0,-999.0,89,0.00,,,0.71,WSDL version 420,2013-08-10 22:40:00,
2013-08-10 18:45:00,75.0,71.5,28.02,North,-999,-999.0,-999.0,89,0.00,,,0.71,WSDL version 420,2013-08-10 22:45:00,
2013-08-10 18:55:00,72.9,68.8,28.02,North,-999,-999.0,-999.0,87,0.00,,,0.71,WSDL version 420,2013-08-10 22:55:00,
2013-08-10 19:00:00,72.4,68.2,28.02,North,-999,-999.0,-999.0,87,0.00,,,0.71,WSDL version 420,2013-08-10 23:00:00,
2013-08-10 19:05:00,72.1,68.3,28.02,North,-999,-999.0,-999.0,88,0.00,,,0.71,WSDL version 420,2013-08-10 23:05:00,
2013-08-10 19:10:00,72.1,68.3,28.02,North,-999,-999.0,-999.0,88,0.00,,,0.71,WSDL version 420,2013-08-10 23:10:00,
2013-08-10 19:15:00,72.0,68.1,28.02,North,-999,-999.0,-999.0,88,0.00,,,0.71,WSDL version 420,2013-08-10 23:15:00,
2013-08-10 19:20:00,71.8,68.0,28.02,North,-999,-999.0,-999.0,88,0.00,,,0.71,WSDL version 420,2013-08-10 23:20:00,
2013-08-10 19:25:00,71.6,67.8,28.02,North,-999,-999.0,-999.0,88,0.00,,,0.71,WSDL version 420,2013-08-10 23:25:00,
2013-08-10 19:30:00,71.6,67.9,28.02,North,-999,-999.0,-999.0,88,0.00,,,0.71,WSDL version 420,2013-08-10 23:30:00,
2013-08-10 19:35:00,71.5,68.1,28.02,North,-999,-999.0,-999.0,89,0.00,,,0.71,WSDL version 420,2013-08-10 23:35:00,
2013-08-10 19:40:00,71.4,68.0,28.02,North,-999,-999.0,-999.0,89,0.00,,,0.71,WSDL version 420,2013-08-10 23:40:00,
2013-08-10 19:45:00,71.4,68.0,28.02,North,-999,-999.0,-999.0,89,0.00,,,0.71,WSDL version 420,2013-08-10 23:45:00,
2013-08-10 19:50:00,71.3,68.2,28.02,North,-999,-999.0,-999.0,90,0.00,,,0.71,WSDL version 420,2013-08-10 23:50:00,
2013-08-10 19:55:00,71.2,68.2,28.02,West,270,0.0,0.0,90,0.00,,,0.71,WSDL version 420,2013-08-10 23:55:00,
2013-08-10 20:00:00,71.2,68.2,28.02,West,270,0.0,0.0,90,0.00,,,0.71,WSDL version 420,2013-08-11 00:00:00,
2013-08-10 20:05:00,71.1,68.0,28.02,West,270,0.0,0.0,90,0.00,,,0.71,WSDL version 420,2013-08-11 00:05:00,
2013-08-10 20:10:00,71.1,68.0,28.02,North,-999,-999.0,-999.0,90,0.00,,,0.71,WSDL version 420,2013-08-11 00:10:00,
2013-08-10 20:20:00,71.1,68.3,28.02,West,270,0.0,0.0,91,0.00,,,0.71,WSDL version 420,2013-08-11 00:20:00,
2013-08-10 20:25:00,71.1,68.3,28.02,West,270,0.0,0.0,91,0.00,,,0.71,WSDL version 420,2013-08-11 00:25:00,
2013-08-10 20:30:00,71.1,68.3,28.02,North,-999,-999.0,-999.0,91,0.00,,,0.71,WSDL version 420,2013-08-11 00:30:00,
2013-08-10 20:35:00,71.1,68.3,28.02,North,-999,-999.0,-999.0,91,0.00,,,0.71,WSDL version 420,2013-08-11 00:35:00,
2013-08-10 20:40:00,70.9,68.2,28.02,North,-999,-999.0,-999.0,91,0.00,,,0.71,WSDL version 420,2013-08-11 00:40:00,
2013-08-10 20:45:00,70.9,68.2,28.02,North,-999,-999.0,-999.0,91,0.00,,,0.71,WSDL version 420,2013-08-11 00:45:00,
2013-08-10 20:50:00,70.8,68.1,28.02,North,-999,-999.0,-999.0,91,0.00,,,0.71,WSDL version 420,2013-08-11 00:50:00,
2013-08-10 20:55:00,70.7,68.0,28.02,North,-999,-999.0,-999.0,91,0.00,,,0.71,WSDL version 420,2013-08-11 00:55:00,
2013-08-10 21:00:00,70.7,68.0,28.02,North,-999,-999.0,-999.0,91,0.00,,,0.71,WSDL version 420,2013-08-11 01:00:00,
2013-08-10 21:05:00,70.7,68.0,28.02,North,-999,-999.0,-999.0,91,0.00,,,0.71,WSDL version 420,2013-08-11 01:05:00,
2013-08-10 21:10:00,70.7,68.0,28.02,North,-999,-999.0,-999.0,91,0.00,,,0.71,WSDL version 420,2013-08-11 01:10:00,
2013-08-10 21:15:00,70.7,68.0,28.02,West,270,0.0,0.0,91,0.00,,,0.71,WSDL version 420,2013-08-11 01:15:00,
2013-08-10 21:20:00,70.7,68.0,28.02,West,270,0.0,0.0,91,0.00,,,0.71,WSDL version 420,2013-08-11 01:20:00,
2013-08-10 21:25:00,70.7,68.0,28.02,West,270,0.0,0.0,91,0.00,,,0.71,WSDL version 420,2013-08-11 01:25:00,
2013-08-10 21:30:00,70.5,67.8,28.02,West,270,0.0,0.0,91,0.00,,,0.71,WSDL version 420,2013-08-11 01:30:00,
2013-08-10 21:35:00,70.5,68.0,28.02,West,270,0.0,0.0,92,0.00,,,0.71,WSDL version 420,2013-08-11 01:35:00,
2013-08-10 21:45:00,70.5,68.1,28.02,North,-999,-999.0,-999.0,92,0.00,,,0.71,WSDL version 420,2013-08-11 01:45:00,
2013-08-10 21:50:00,70.4,68.0,28.02,North,-999,-999.0,-999.0,92,0.00,,,0.71,WSDL version 420,2013-08-11 01:50:00,
2013-08-10 21:55:00,70.5,68.1,28.02,North,-999,-999.0,-999.0,92,0.00,,,0.71,WSDL version 420,2013-08-11 01:55:00,
2013-08-10 22:00:00,70.3,68.0,28.02,North,-999,-999.0,-999.0,92,0.00,,,0.71,WSDL version 420,2013-08-11 02:00:00,
2013-08-10 22:05:00,70.3,68.0,28.02,North,-999,-999.0,-999.0,92,0.00,,,0.71,WSDL version 420,2013-08-11 02:05:00,
2013-08-10 22:10:00,70.3,68.0,28.02,North,-999,-999.0,-999.0,92,0.00,,,0.71,WSDL version 420,2013-08-11 02:10:00,
2013-08-10 22:15:00,70.2,67.8,28.02,North,-999,-999.0,-999.0,92,0.00,,,0.71,WSDL version 420,2013-08-11 02:15:00,
2013-08-10 22:20:00,70.0,67.7,28.02,North,-999,-999.0,-999.0,92,0.00,,,0.71,WSDL version 420,2013-08-11 02:20:00,
2013-08-10 22:25:00,70.0,67.6,28.02,North,-999,-999.0,-999.0,92,0.00,,,0.71,WSDL version 420,2013-08-11 02:25:00,
2013-08-10 22:30:00,70.0,67.6,28.02,North,-999,-999.0,-999.0,92,0.00,,,0.71,WSDL version 420,2013-08-11 02:30:00,
2013-08-10 22:35:00,69.8,67.4,28.02,North,-999,-999.0,-999.0,92,0.00,,,0.71,WSDL version 420,2013-08-11 02:35:00,
2013-08-10 22:40:00,69.7,67.3,28.02,North,-999,-999.0,-999.0,92,0.00,,,0.71,WSDL version 420,2013-08-11 02:40:00,
2013-08-10 22:45:00,69.6,67.3,28.02,North,-999,-999.0,-999.0,92,0.00,,,0.71,WSDL version 420,2013-08-11 02:45:00,
2013-08-10 22:50:00,69.6,67.2,28.02,North,-999,-999.0,-999.0,92,0.00,,,0.71,WSDL version 420,2013-08-11 02:50:00,
2013-08-10 22:55:00,69.4,67.1,28.02,North,-999,-999.0,-999.0,92,0.00,,,0.71,WSDL version 420,2013-08-11 02:55:00,
2013-08-10 23:02:00,69.4,67.0,28.02,North,-999,-999.0,-999.0,92,0.00,,,0.71,WSDL version 420,2013-08-11 03:02:00,
2013-08-10 23:07:00,69.3,66.9,28.02,North,-999,-999.0,-999.0,92,0.00,,,0.71,WSDL version 420,2013-08-11 03:07:00,
2013-08-10 23:12:00,69.3,66.9,28.02,North,-999,-999.0,-999.0,92,0.00,,,0.71,WSDL version 420,2013-08-11 03:12:00,
2013-08-10 23:17:00,69.3,66.9,28.02,North,-999,-999.0,-999.0,92,0.00,,,0.71,WSDL version 420,2013-08-11 03:17:00,
2013-08-10 23:22:00,69.2,66.8,28.02,North,-999,-999.0,-999.0,92,0.00,,,0.71,WSDL version 420,2013-08-11 03:22:00,
2013-08-10 23:27:00,69.3,66.9,28.02,North,-999,-999.0,-999.0,92,0.00,,,0.71,WSDL version 420,2013-08-11 03:27:00,
2013-08-10 23:32:00,69.3,66.9,28.02,North,-999,-999.0,-999.0,92,0.00,,,0.71,WSDL version 420,2013-08-11 03:32:00,
2013-08-10 23:37:00,69.1,66.7,28.02,North,-999,-999.0,-999.0,92,0.00,,,0.71,WSDL version 420,2013-08-11 03:37:00,
2013-08-10 23:42:00,69.1,66.8,28.02,North,-999,-999.0,-999.0,92,0.00,,,0.71,WSDL version 420,2013-08-11 03:42:00,
2013-08-10 23:52:00,69.1,66.7,28.02,North,-999,-999.0,-999.0,92,0.00,,,0.71,WSDL version 420,2013-08-11 03:52:00,